Flag for Canada Weather past 2 weeks in Coral Harbour, Nunavut Territory, Canada

Now
-38 °F

Passing clouds.


Feels Like: -67 °F
Forecast: -40 / -23 °F
Wind: 14 mph from North

Location: Coral Harbour

Current Time: Jan 26, 2015 at 2:17:50 AM

Latest Report: Jan 26, 2015 at 1:00 AM


Visibility: 15 mi

Pressure: 29.85 "Hg

Humidity: 58%

Dew point: -47 °F

Location of Coral HarbourLocation

Historic Weather in Coral Harbour — Graph

°F

Coral Harbour temperature yesterday

Maximum temperature yesterday: -35 °F (at 7:00 PM)
Minimum temperature yesterday: -40 °F (at 10:00 AM)
Average temperature yesterday: -38 °F

Past Weeks' High & Low Weather Summary

 TemperatureHumidityPressure
High-11 °F (Jan 12, 11:00 AM)76% (Jan 12, 10:00 AM)30.14 "Hg (Jan 12, 10:00 AM)
Low-42 °F (Jan 17, 8:00 AM)53% (Jan 13, 8:00 PM)29.43 "Hg (Jan 12, 3:00 PM)
Average-31 °F62%29.83 "Hg
* Reported Midnight between Jan 10 and Jan 11 — Midnight between Jan 25 and Jan 26, Coral Harbour, Weather by CustomWeather, © 2014

Note: Actual official high and low records may vary slightly from our data, if they occured in-between our weather recording intervals... More about our weather records

Advertising

Coral Harbour weather history for previous 24 hours

 ConditionsComfort  
Time TempWeatherWind HumidityBarometerVisibility
12:00 AM
Jan 26
-40 °FPassing clouds.10 mph58%29.86 "Hg15 mi
11:00 PM
Jan 25
-40 °FPassing clouds.12 mph58%29.87 "Hg15 mi
10:00 PM-38 °FPassing clouds.13 mph58%29.88 "Hg15 mi
9:00 PM-40 °FPassing clouds.9 mph58%29.90 "Hg15 mi
8:00 PM-35 °FPassing clouds.10 mph59%29.90 "Hg15 mi
7:00 PM-35 °FPassing clouds.15 mph59%29.90 "Hg15 mi
6:00 PM-38 °FPassing clouds.14 mph58%29.91 "Hg15 mi
5:00 PM-38 °FPassing clouds.13 mph58%29.89 "Hg15 mi
4:00 PM-38 °FPassing clouds.16 mph58%29.88 "Hg15 mi
3:00 PM-36 °FPassing clouds.16 mph59%29.87 "Hg15 mi
2:00 PM-36 °FPassing clouds.16 mph59%29.86 "Hg15 mi
1:00 PM-38 °FPassing clouds.13 mph58%29.86 "Hg15 mi
12:00 PM-40 °FPassing clouds.13 mph58%29.87 "Hg15 mi
11:00 AM-40 °FPassing clouds.13 mph58%29.87 "Hg15 mi
10:00 AM-40 °FPassing clouds.14 mph58%29.85 "Hg15 mi
9:00 AM-38 °FPassing clouds.7 mph58%29.83 "Hg15 mi
8:00 AM-38 °FPassing clouds.10 mph58%29.83 "Hg15 mi
7:00 AM-38 °FPassing clouds.15 mph58%29.83 "Hg15 mi
6:00 AM-38 °FPassing clouds.14 mph58%29.83 "Hg15 mi
5:00 AM-36 °FLow level haze.18 mph59%29.83 "Hg15 mi
4:00 AM-38 °FLow level haze.20 mph58%29.83 "Hg15 mi
3:00 AM-36 °FLow level haze.22 mph59%29.82 "Hg15 mi
2:00 AM-38 °FPassing clouds.9 mph58%29.83 "Hg15 mi
Weather by CustomWeather, © 2014

See weather overviewHow to use our weather pages